Terminal Aerodrome Forecast
Issued by NWS Twin Cities, MN

Home | Current Version | Previous Version | Graphics & Text | Print | Product List | Glossary On
Versions: 1 2 3 4 5 6 7 8 9 10 11 12 13 14 15 16 17 18 19 20 21 22 23 24 25 26 27 28 29 30 31 32
000
FTUS43 KMPX 041452 AAB
TAFMSP
TAF AMD
KMSP 041452Z 0415/0518 13011G17KT P6SM FEW010 SCT120
     FM042200 15011G16KT P6SM VCSH BKN120
     FM050600 15007KT 6SM BR OVC120=

USA.gov is the U.S. government's official web portal to all federal, state and local government web resources and services.